Strona główna
METAR-TAF:

METAR-TAF

Lotnisko :

Black_Hills

Spearfish, Dakota Południowa, Stany Zjednoczone

Szerokość geograficzna: 44-29N, Długość geograficzna: 103-47W, wysokość: 1188 m

Aktualna obserwacja pogody

Raport powstał 17 minut temu, godzina 05:15 UTC
Wiatr 8 kt od południowo-południowy zachód
Temperatura 10°C
Wilgotność 87%
Ciśnienie 1022 hPa
Widzialność: 16.1 km
bezchmurnie

METAR: KSPF 280515Z AUTO 20008KT 10SM CLR 10/08 A3019 RMK AO2

czas: 23:32 (05:32 UTC)


TAF: brakujący

Obserwacja i prognoza pogody dla ponad 4000 lotnisk (raport METAR i TAF).

Dostępne stacje oznaczono żółtymi i czerwonymi punktami na mapie.

Najedź kursorem aby zobaczyć nazwę stacji.

Kliknij aby zobaczyć obserwacje i prognozy pogody.

Aby zmienić mapę: kliknij na zielony przycisk z czarnym krzyżykiem, aby powiększyć; na zielony przycisk z myślnikiem, aby pomniejszyć; na zielone strzałki, aby przejść do map sąsiednich.


METAR-TAF: